Regional Weather Roundup
Issued by NWS

Home | Current Version | Previous Version | Text Only | Print | Product List | Glossary Off
Versions: 1 2 3 4 5 6 7 8 9 10 11 12 13 14 15 16 17 18 19 20 21 22 23 24 25 26 27 28 29 30 31 32 33 34 35 36 37 38 39 40 41 42 43 44 45 46 47 48 49 50

000
ASUS45 KSLC 230710
RWRUT

UTAH REGIONAL WEATHER ROUNDUP
NATIONAL WEATHER SERVICE SALT LAKE CITY UT
100 AM MDT WED JUL 23 2014

UTZ001>011-023>025-230800-

NORTHERN UTAH

CITY           SKY/WX    TMP DP  RH WIND       PRES   REMARKS
HILL AFB       CLEAR     77  34  20 E18       30.12F
LOGAN          NOT AVBL
OGDEN          CLEAR     78  34  20 S14       30.09S
PROVO AIRPORT  CLEAR     70  45  40 SE8       30.15R
SALT LAKE CITY PTCLDY    78  37  22 SE10      30.08S
VERNAL         CLEAR     72  30  21 W6        30.22R
WENDOVER       CLEAR     77  37  24 SE6       30.07R
HEBER CITY     CLEAR     57  41  54 CALM      30.25S
WEST JORDAN    CLEAR     79  43  27 SW6       30.13S

$$

UTZ012>022-026-027-230800-

SOUTHERN UTAH

CITY           SKY/WX    TMP DP  RH WIND       PRES   REMARKS
BRYCE CANYON   CLEAR     56  34  43 W8        30.46R
CEDAR CITY     CLEAR     72  33  24 SE7       30.27R
MILFORD        CLEAR     73  34  23 SW9       30.20R
MOAB/CYNLANDS  CLEAR     77  17  10 CALM      30.12S
PRICE          CLEAR     70  14  11 N13       30.27S
ST GEORGE      SUNNY     82  25  12 SE6       30.05R
KANAB            N/A     70  36  28 NE5       30.25S

$$

REGIONAL REPORTS     COLORADO/ARIZONA

CITY           SKY/WX    TMP DP  RH WIND       PRES   REMARKS
CRAIG, CO      CLEAR     46  41  82 CALM      30.34S
GRAND JUNCTION CLEAR     71  24  17 E6        30.17R
RIFLE          CLEAR     66  28  24 S5        30.28R
MONTROSE       MOCLDY    73  36  25 SE7       30.30R
CORTEZ         CLEAR     80  43  26 SE22G31   30.36R
PAGE, AZ       MOCLDY    90  34  13 CALM      30.13R
GRAND CANYON   PTCLDY    63  42  46 CALM      30.38R
KINGMAN        CLEAR     76  32  20 SE8       30.10R
FLAGSTAFF      PTCLDY    61  39  44 CALM      30.42S

$$

REGIONAL REPORTS    NEVADA/IDAHO/WYOMING

CITY           SKY/WX    TMP DP  RH WIND       PRES   REMARKS
LAS VEGAS, NV  CLEAR     92  26   9 S10       29.92S
ELY            CLEAR     62  16  16 S13       30.29R
ELKO           CLEAR     68  30  24 W5        30.13R
POCATELLO, ID  CLEAR     65  43  44 SE6       30.08F
BURLEY         CLEAR     62  49  62 CALM      30.02S
EVANSTON, WY   CLEAR     68  35  29 SE7       30.37S
ROCK SPRINGS   CLEAR     73  23  15 E3        30.35F

$$



USA.gov is the U.S. government's official web portal to all federal, state and local government web resources and services.